Voltar ao catálogo

DELTA 1 DEB

AtivoSSO
NORAD 7086·DEBRIS·🇺🇸 United States

Lançado Nov 6, 1973 de Vandenberg Space Force Base

Loading…

Próximas Passagens (próximas 24 horas)

TLE

AtualizadoSource: Space-Track

Época: Sep 14, 2026, 10:07 UTC

1 07086U 73086CE  26257.42193233  .00000002  00000-0  35526-3 0  9990
2 07086 102.1624 229.9783 0014329  41.8162 110.6598 12.40984843392063

Acompanhe DELTA 1 DEB em tempo real com AllMySat

Download on the App Store